Weather in Arusha

Tanzania     3°22′26″S   36°40′43″E
temp.,
°C
wind,
m/s
gust,
m/s
humid.,
%
clouds,
%
prec.,
mm/h
press.,
hPa
HPBL,
m
12 april, mon
mon1200:00+14se2498100 0.9 1017147
03:00+14se249779 1.6 1016242
06:00+14se249791 0.4 1017238
09:00+15se249294 0.8 1019396
12:00+19se237134 0.2 1017885
15:00+21se235923 0.3 10131359
18:00+18ese238122 0.5 1014161
21:00+15se139222 0.8 101776
13 april, tue
tue1300:00+14se239848 0.4 1017189
03:00+13se2298100 0.6 101687
06:00+14se239799 0.2 1017244
09:00+17se228294 0.3 1019552
12:00+21se226274 0.3 10161232
15:00+20se226699 1.2 10131151
18:00+17se238792 1.1 101597
21:00+15se129499 1.9 101763
14 april, wed
wed1400:00+15se2498100 1.5 1018169
03:00+15se2398100 2.0 1016133
06:00+14se119896 0.1 1017100
09:00+17ese128641 0.1 1018445
12:00+18sse1184100 1.8 1017694
15:00+20ese117788 3.4 1013811
18:00+16ese129269 2.8 101476
21:00+15se119099 3.7 101626
15 april, thu
thu1500:00+15se119582 0.2 101738
03:00+15ene0196100 0.4 101681
06:00+14nw019799 0.3 101632
09:00+16ne019164 1.0 1018365
12:00+18se018695 4.1 1016455
15:00+20e0181100 8.9 1012579
18:00+17e1192100 7.8 101434
21:00+16ene1193100 13.4 101632
16 april, fri
fri1600:00+15sse1196100 2.3 101658
03:00+14sse1197100 4.6 101544
06:00+14sse1197100 0.9 101623
09:00+16se1296100 1.4 1018263
12:00+19sse118193 1.1 1016653
15:00+19se1184100 4.6 1013489
18:00+16ese1297100 4.1 1014102
21:00+16ese019499 6.3 101619